Lid_Strength_Index
0 1 1 1 1 1 1 0 0 -0 0 1 3 3 3 3 2 3 2 -1 2 4 5 3 3 5 5 5 7 5 6 5 6 8 8 8 9 8 8 7 8 9 10 10 9 10 14 5 5 9 7 5 4 4
0 1 1 1 1 1 1 1 0 0 0 0 2 4 3 3 3 3 3 -1 -1 3 4 2 2 1 2 3 5 4 5 5 5 7 6 7 8 7 8 11 6 9 9 10 10 11 6 5 6 4 4 4 4 4
0 1 1 1 1 1 1 1 0 0 -0 1 3 4 3 3 3 3 2 0 1 3 4 5 3 1 0 1 1 6 5 4 4 3 5 5 7 6 9 8 7 7 5 8 8 7 6 5 4 3 3 4 3 3
1 0 0 1 0 0 1 0 0 0 -0 1 2 4 3 3 3 2 2 -0 1 3 6 4 1 2 0 1 1 2 3 3 3 4 4 6 7 5 7 7 7 6 5 7 8 6 5 5 4 3 4 3 3 3
1 1 0 1 0 0 0 0 -0 -0 -0 0 1 2 3 3 3 2 1 -0 -0 3 7 7 2 1 1 1 2 1 3 4 4 5 6 6 5 5 5 5 7 5 7 8 9 6 5 5 3 3 4 3 3 3
1 1 1 1 0 0 0 0 0 -0 -0 0 1 1 3 3 3 2 4 0 -1 1 5 9 2 3 2 2 2 3 3 4 5 4 5 5 4 6 7 8 5 5 4 4 6 4 4 4 3 3 4 3 3 3
0 1 1 0 0 1 0 0 0 -0 -0 0 1 2 3 3 2 3 4 2 2 0 5 8 6 3 2 2 3 3 2 4 3 5 5 5 5 5 6 8 5 4 4 4 3 4 5 3 4 3 3 3 3 3
-0 0 1 1 1 1 0 0 -0 -0 -0 0 2 3 3 3 3 3 0 2 2 2 3 8 7 5 2 5 5 3 4 3 4 5 4 5 5 5 8 6 5 4 4 4 3 3 3 3 3 3 3 3 3 4
0 1 1 1 1 1 0 -0 -0 -0 -0 2 3 3 4 3 4 3 2 2 -1 2 7 6 8 9 3 4 4 4 4 7 3 6 5 5 6 7 6 6 5 4 4 4 3 3 3 4 4 3 3 3 3 4
0 1 1 1 1 0 -0 -0 -0 -0 2 3 4 7 7 4 2 1 2 4 4 4 4 7 4 7 4 5 5 6 4 7 8 6 4 6 7 5 4 4 4 3 3 3 4 5 5 5 4 3 3 3 3 3
0 1 1 1 0 -0 -0 -0 -0 -0 2 5 8 8 2 1 2 4 6 7 6 7 5 5 5 6 3 6 7 5 6 6 9 7 7 7 8 6 4 4 3 3 3 3 2 3 3 3 4 3 3 3 2 2
0 1 1 0 0 -0 -0 -0 -0 1 3 5 6 4 2 4 6 8 8 6 8 8 5 6 6 4 4 3 5 5 7 6 9 5 7 9 7 5 4 4 3 3 2 3 2 3 3 3 3 3 3 3 2 2
0 1 0 0 -0 -0 -1 -1 1 2 3 4 6 6 6 7 12 10 10 8 8 6 5 5 7 5 4 4 5 6 8 8 5 8 8 8 6 4 4 3 3 2 2 2 3 3 3 3 3 3 3 3 2 2
0 0 0 -0 -0 -1 -1 1 2 4 6 11 10 12 9 10 8 8 7 6 5 5 5 5 6 6 5 6 6 8 7 6 9 10 9 7 5 4 4 3 3 3 3 3 3 3 4 4 4 3 3 3 3 3
0 -0 -0 -1 -1 -1 0 2 4 5 9 13 8 12 8 5 5 5 4 4 4 4 5 6 5 6 6 7 6 7 9 10 9 9 8 6 5 4 4 3 3 3 3 3 4 4 4 4 4 4 4 3 4 3
-0 -0 -0 -1 -0 0 2 4 5 6 8 10 8 7 5 6 6 5 5 5 3 4 4 5 6 8 8 7 8 9 9 10 8 7 6 5 5 4 4 3 3 3 2 3 3 3 3 4 4 4 4 4 4 4
-0 1 -0 -0 1 3 3 5 7 10 11 9 7 4 5 5 5 5 4 4 3 5 7 7 8 9 6 8 8 6 7 8 7 6 5 4 4 4 3 3 3 2 2 3 3 2 3 3 3 4 5 4 4 4
1 -0 -0 2 3 4 5 6 9 11 11 7 7 5 4 4 4 4 4 3 4 5 5 6 4 7 8 9 8 7 6 5 5 5 4 4 3 3 3 3 3 2 3 3 3 2 3 4 4 5 4 4 4 4
0 -0 3 3 4 5 8 8 8 11 7 6 4 4 4 4 3 3 3 3 2 2 4 4 6 7 7 5 6 5 5 5 5 5 4 3 3 3 3 2 2 2 3 2 2 3 3 3 4 4 5 4 5 4
0 2 3 3 3 6 9 10 7 9 8 5 5 4 4 5 4 4 4 4 4 4 5 6 6 5 5 4 4 4 4 3 4 5 5 4 3 3 3 3 3 2 3 2 2 5 3 4 4 4 4 4 5 5
2 3 3 3 5 7 10 11 9 7 6 7 6 5 6 4 5 6 5 3 5 5 6 4 4 3 2 2 2 2 3 3 4 4 4 5 3 3 3 2 2 3 3 3 4 4 5 4 4 4 4 4 3 3
4 3 4 5 7 8 10 8 8 4 6 6 6 5 7 7 7 5 4 5 6 4 3 4 4 3 3 3 3 2 2 2 2 3 5 4 3 3 3 3 3 4 3 3 3 4 3 3 3 3 3 3 4 3
3 4 6 7 10 13 12 6 7 5 8 7 6 8 7 6 5 3 6 5 4 3 3 3 3 2 3 2 2 2 2 2 3 3 3 2 2 2 2 3 3 3 3 3 3 3 3 7 5 3 3 3 3 3
4 6 8 10 12 13 7 7 5 6 7 7 7 8 7 6 4 6 8 6 5 3 4 3 3 3 3 3 3 3 2 2 2 2 2 2 3 2 2 3 2 2 2 2 3 3 3 3 5 3 3 3 3 4
10 10 10 13 11 10 9 8 7 7 9 7 8 8 7 5 7 8 8 7 5 5 4 3 3 3 4 3 3 2 1 2 2 3 2 2 2 3 3 2 2 2 2 3 3 3 4 4 4 4 4 4 4 4
12 10 12 10 8 8 8 9 8 8 8 8 8 6 5 7 9 10 8 6 4 4 3 3 3 3 3 3 3 3 2 1 1 2 2 1 2 2 3 3 3 3 2 2 3 4 4 4 4 4 4 6 10 5
12 11 9 6 6 5 7 6 6 7 9 9 7 7 7 9 9 7 4 3 3 3 2 2 2 2 3 3 2 1 1 1 1 1 1 1 1 1 2 3 3 2 2 2 2 3 4 4 4 4 4 3 3 3
10 7 8 6 6 5 7 7 8 8 8 6 6 8 9 10 11 6 4 3 2 1 1 1 1 2 2 1 1 1 1 1 0 0 1 1 1 1 1 1 1 10 2 2 2 3 3 3 3 3 3 3 3 2
8 6 6 7 7 7 7 7 7 6 4 5 7 8 9 7 6 4 2 2 1 2 2 2 2 1 1 1 1 1 1 1 2 3 3 3 3 2 1 1 2 2 2 3 14 9 4 3 3 3 3 2 2 3
7 5 7 7 8 9 6 5 5 4 4 5 6 6 6 5 4 2 1 2 2 3 2 2 2 2 2 2 2 2 1 1 1 2 3 3 2 1 1 2 2 2 2 2 3 3 11 5 6 3 4 3 3 3
4 5 6 7 8 6 4 3 3 3 3 4 4 6 6 5 3 2 2 1 2 2 2 2 2 2 2 2 2 3 2 1 1 1 1 1 1 1 1 1 1 1 1 1 2 2 2 3 3 3 3 3 3 5
5 6 7 8 7 5 4 5 5 5 5 5 6 5 5 5 6 4 2 1 2 2 5 2 2 2 1 1 1 1 6 1 1 1 1 1 1 0 0 1 1 0 2 2 1 2 2 2 3 3 3 3 3 3
5 5 6 6 7 7 5 5 6 7 6 6 6 5 5 5 7 4 2 1 1 2 2 1 1 1 0 1 1 2 5 4 10 14 13 12 12 8 2 1 1 1 1 2 2 2 2 2 3 3 3 3 3 3